Home > Weather > Wroclaw > Past weeks

Flag for Poland Past Weather in Wroclaw, Poland — Yesterday and Last 2 Weeks

Now
79 °F

Passing clouds.


Feels Like: 80 °F
Forecast: 63 / 86 °F
Wind: 6 mph from Northeast

Location: Wroclaw Ii

Current Time: Jul 23, 2016 at 3:10:28 PM

Latest Report: Jul 23, 2016 at 2:30 PM


Visibility: N/A

Pressure: 30.07 "Hg

Humidity: 48%

Dew Point: 57 °F

Location of WroclawLocation

Past Weather in Wroclaw — Graph

°F

Wroclaw Temperature Yesterday

Maximum temperature yesterday: 81 °F (at 2:00 PM)
Minimum temperature yesterday: 59 °F (at 4:00 AM)
Average temperature yesterday: 71 °F

High & Low Weather Summary for the Past Weeks

 TemperatureHumidityPressure
High93 °F (Jul 11, 5:00 PM)100% (Jul 13, 12:30 AM)30.24 "Hg (Jul 13, 12:30 AM)
Low52 °F (Jul 14, 8:30 PM)30% (Jul 11, 5:00 PM)29.62 "Hg (Jul 14, 11:30 AM)
Average67 °F73%30.00 "Hg
* Reported Jul 8 2:00 PM — Jul 23 2:00 PM, Wroclaw, Weather by CustomWeather, © 2016

Note: Actual official high and low records may vary slightly from our data, if they occured in-between our weather recording intervals... More about our weather records

Advertising

Wroclaw Weather History for the Previous 24 Hours

Scroll right to see more
 ConditionsComfort  
Time TempWeatherWind HumidityBarometerVisibility
2:00 PM
Sat, Jul 23
79 °FPassing clouds.5 mph45%30.07 "HgN/A
1:30 PM79 °FPassing clouds.2 mph48%30.07 "HgN/A
1:00 PM77 °FPassing clouds.5 mph54%30.07 "HgN/A
12:30 PM77 °FPassing clouds.3 mph51%30.07 "HgN/A
12:00 PM77 °FPassing clouds.5 mph51%30.07 "HgN/A
11:30 AM75 °FPassing clouds.7 mph57%30.09 "HgN/A
11:00 AM73 °FPassing clouds.5 mph57%30.09 "HgN/A
10:30 AM73 °FPassing clouds.5 mph61%30.09 "HgN/A
10:00 AM73 °FPassing clouds.5 mph61%30.07 "HgN/A
9:30 AM72 °FPassing clouds.5 mph65%30.07 "HgN/A
9:00 AM72 °FSunny.2 mph65%30.07 "Hg10 mi
8:30 AM70 °FPassing clouds.3 mph64%30.07 "HgN/A
8:00 AM68 °FSunny.2 mph73%30.07 "Hg10 mi
7:30 AM66 °FSunny.1 mph78%30.07 "Hg10 mi
7:00 AM64 °FSunny.2 mph78%30.07 "Hg10 mi
6:30 AM61 °FSunny.2 mph88%30.07 "Hg10 mi
6:00 AM57 °FFog.1 mph88%30.07 "HgN/A
5:30 AM55 °FFog.2 mph94%30.07 "HgN/A
5:00 AM55 °FFog.2 mph88%30.07 "HgN/A
4:30 AM55 °FClear.2 mph94%30.07 "Hg10 mi
4:00 AM57 °FClear.3 mph88%30.07 "Hg10 mi
3:30 AM57 °FClear.3 mph88%30.07 "Hg10 mi
3:00 AM59 °FClear.1 mph82%30.07 "Hg10 mi
2:30 AM59 °FClear.1 mph82%30.04 "Hg10 mi
2:00 AM61 °FClear.1 mph72%30.07 "Hg10 mi
1:30 AM64 °FClear.3 mph68%30.07 "Hg10 mi
1:00 AM64 °FClear.8 mph68%30.04 "Hg10 mi
12:30 AM63 °FClear.3 mph64%30.04 "Hg10 mi
12:00 AM61 °FClear.3 mph68%30.04 "Hg10 mi
11:30 PM
Fri, Jul 22
63 °FClear.2 mph59%30.04 "Hg10 mi
11:00 PM63 °FClear.2 mph64%30.04 "Hg10 mi
10:30 PM64 °FClear.1 mph56%30.04 "Hg10 mi
10:00 PM68 °FClear.2 mph49%30.04 "Hg10 mi
9:30 PM72 °FSunny.6 mph41%30.04 "Hg10 mi
9:00 PM73 °FSunny.5 mph38%30.04 "Hg10 mi
8:30 PM73 °FSunny.6 mph38%30.01 "Hg10 mi
8:00 PM75 °FSunny.8 mph36%30.01 "Hg10 mi
7:30 PM77 °FSunny.8 mph36%30.01 "Hg10 mi
7:00 PM79 °FSunny.9 mph39%30.01 "Hg10 mi
6:30 PM79 °FPassing clouds.8 mph42%30.01 "HgN/A
6:00 PM81 °FPassing clouds.8 mph39%30.01 "HgN/A
5:30 PM81 °FPassing clouds.5 mph42%30.01 "HgN/A
5:00 PM81 °FPassing clouds.6 mph42%30.01 "HgN/A
4:30 PM81 °FPassing clouds.6 mph42%30.01 "HgN/A
4:00 PM81 °FPassing clouds.9 mph45%30.01 "HgN/A
3:30 PM81 °FPassing clouds.8 mph42%30.01 "HgN/A
3:00 PM81 °FSunny.5 mph42%30.01 "Hg10 mi
Weather by CustomWeather, © 2016

See weather overviewHow to use our weather pages